Weather in Bandar-e Anzali

Iran     37°28′18″N   49°28′00″E
temp.,
°C
wind,
m/s
gust,
m/s
humid.,
%
clouds,
%
prec.,
mm/h
press.,
hPa
HPBL,
m
17 august, wed
wed1701:30+27se00770 0.0 100812
04:30+27ssw11760 0.0 100824
07:30+27wsw11720 0.0 101050
10:30+29nnw22600 0.0 1010261
13:30+30nne44580 0.0 1009377
16:30+30ne45620 0.0 1008323
19:30+29ne23700 0.0 100849
22:30+28n01750 0.0 100914
18 august, thu
thu1801:30+27wnw22740 0.0 100926
04:30+27w11720 0.0 100925
07:30+26sw22680 0.0 100972
10:30+29nnw12490 0.0 1010251
13:30+30nne44470 0.0 1008425
16:30+30ne55540 0.0 1007347
19:30+28ene34660 0.0 100770
22:30+27se11690 0.0 100729
19 august, fri
fri1901:30+26ssw11640 0.0 100733
04:30+25ssw11610 0.0 100754
07:30+25sw22580 0.0 100774
10:30+28ne11450 0.0 1008231
13:30+29nne44460 0.0 1007464
16:30+29ne45500 0.0 1007351
19:30+28nne33594 0.0 100751
22:30+27wnw22593 0.0 100821
20 august, sat
sat2001:30+26wnw22570 0.0 100839
04:30+25wsw33533 0.0 100990
07:30+25w33455 0.0 1010119
10:30+29nw35469 0.0 1011363
13:30+29n56585 0.0 1010517
16:30+29n45656 0.0 1010547
19:30+28nnw457382 0.0 1011300
22:30+27nw457692 0.0 1012294
21 august, sun
sun2101:30+26wnw35723 0.0 1011255
04:30+25wsw23664 0.0 1011152
07:30+25w45541 0.0 1012243
10:30+28nw67680 0.0 1012748
13:30+28n66650 0.0 1011775
16:30+28ne66590 0.0 1011794
19:30+27ne33560 0.0 1012468
22:30+26nne11560 0.0 1012376